Location: Mount Kobau Star Party
(49.1167°N, 119.7333°W)
Time: 14:00:25
(UTC-07:00)

ACS3 Solar Sail - Pass Details

Date: 22 June 2024
Orbit: 992 x 1023 km, 97.4° (Epoch: 12 July)

Event Time Altitude Azimuth Distance (km) Brightness Sun altitude
Exits shadow 23:02:22 - 190° (S) 2,881 6.8 -12.8°
Reaches altitude 10° 23:02:42 10° 191° (SSW) 2,758 6.7 -12.8°
Maximum altitude 23:08:38 46° 264° (W) 1,312 5.6 -13.2°
Drops below altitude 10° 23:14:36 10° 337° (NNW) 2,765 8.7 -13.7°
Sets 23:17:13 0° 344° (NNW) 3,718 9.7 -13.8°
